Weather in Novo-Ivanovskoye

Russia / The Kabardino-Balkar Republic     43°38′22″N   43°57′24″E
temp.,
°C
wind,
m/s
gust,
m/s
humid.,
%
clouds,
%
prec.,
mm/h
press.,
hPa
HPBL,
m
22 may, sun
sun2200:00+12wsw11700 0.0 101311
03:00+11ssw33755 0.0 101126
06:00+13ssw34675 0.0 101086
09:00+21s33460 0.0 1008398
12:00+25e22320 0.0 10051300
15:00+26e34340 0.0 10031586
18:00+24ene235247 0.0 100151
21:00+17n45620 0.0 100266
23 may, mon
mon2300:00+13nw22890 0.0 100323
03:00+12nw228645 0.0 100416
06:00+13nnw118156 0.0 100479
09:00+18nne226390 0.0 1004797
12:00+20nne3360100 0.3 10031129
15:00+16ne2477100 0.9 100376
18:00+14nw4994100 7.4 1004411
21:00+12w2596100 11.8 1007201
24 may, tue
tue2400:00+12wsw2496100 4.0 1006150
03:00+12w3696100 10.0 1007395
06:00+11nnw2695100 3.8 1009338
09:00+11nnw2390100 4.7 1011328
12:00+12w2279100 0.3 1012501
15:00+13sw3379100 0.6 1012524
18:00+14ssw3579100 0.1 1013425
21:00+11sw4794100 1.5 1016189
25 may, wed
wed2500:00+11wsw3690100 0.2 1016173
03:00+10wsw3493100 0.5 1017104
06:00+11sw239172 0.1 1019100
09:00+14wsw227398 1.0 1019459
12:00+17nnw236093 1.0 10191386
15:00+18nnw345983 2.3 10191331
18:00+16n237186 0.8 1021273
21:00+13w337566 0.8 102237
26 may, thu
thu2600:00+10wsw338517 0.0 102229
03:00+12wnw2276100 0.0 102226
06:00+13ssw117375 0.0 102351
09:00+17s22605 0.3 1023844
12:00+20se114917 0.0 10211738
15:00+21ese21448 0.0 10201903
18:00+19ese3564100 0.0 1019146
21:00+14ese226961 0.0 102014